Other Surface Observations
Issued by NWS Charleston, SC

Home | Current Version | Previous Version | Text Only | Print | Product List | Glossary On
Versions: 1 2 3 4 5 6 7 8 9 10 11 12 13 14 15 16 17 18 19 20 21 22 23 24 25 26 27 28 29 30 31 32 33 34 35 36 37 38 39 40 41 42 43 44 45 46 47 48 49 50
000
SXUS52 KCHS 271326
OSOCHS

MARINE OBSERVATIONS
NATIONAL WEATHER SERVICE CHARLESTON SC
800 AM EST FRI FEB 27 2015

...DOWNTOWN CHARLESTON AND HARBOR...

CITY           SKY/WX    TMP DP  RH WIND       PRES   REMARKS
WATERFRONT PRK   N/A     39 N/A N/A N12         N/A  WCI  32
FORT JOHNSON   NOT AVBL

...LAKE MOULTRIE...

CITY           SKY/WX    TMP DP  RH WIND       PRES   REMARKS
PINOPOLIS        N/A     37  34  87 E9        30.23R WCI  31

...LAKE AND SUPPLEMENTAL COASTAL OBSERVATIONS...

STATION/POSITION TIME  TEMP    WIND        PRES    WAVE   SWELL
                       AIR SEA DIR/SP/G            HT/PER HT/PER/DIR
                 (UTC) (F)     (DEG/KT/KT) (MB)    (FT/S) (FT/S/D)
FORT PULASKI     1206   41 49   10/  7/  9 1025.1R
SAPELO ISLAND    1300   43      20/  8     1025.0
UPR LAKE MARION  NOT AVBL
WINYAH BAY       1245   35     360/  5     1025.0
LAKE MURRAY      1300   38      50/  1/  3 1026.1R
ACE BASIN NERRS  NOT AVBL


...C-MAN AND BUOY OBSERVATIONS...

STATION/POSITION TIME  TEMP    WIND        PRES    WAVE   SWELL
                       AIR SEA DIR/SP/G            HT/PER HT/PER/DIR
                 (UTC) (F)     (DEG/KT/KT) (MB)    (FT/S) (FT/S/D)
BUOY 41004       1250   47 65   20/ 16/ 21 1024.6R   5/ 8   3/ 8
BUOY 41008       1250   45 52   30/ 17/ 19 1024.5R   4/ 5   2/110/ 8
FOLLY BEACH CMAN 1300   39      20/ 11/ 14 1026.6R
CAPERS NS BUOY   NOT AVBL
FRIPP NS BUOY    1200   42      50/ 14/ 17 1023.9R
5E ST. MARYS GA  1251      53                N/A     4/ 5


STATION/POSITION TIME  TEMP    WIND        PRES    WAVE   SWELL
                       AIR SEA DIR/SP/G            HT/PER HT/PER/DIR
                 (UTC) (F)     (DEG/KT/KT) (MB)    (FT/S) (FT/S/D)
FRYING PAN BUOY  1250   44 60   20/ 14/ 17 1025.8R   5/10   5/120/10
BUOY 41025       NOT AVBL
CAPE LOOKOUT NC  1300   34     350/ 12/ 14 1026.2R
BUOY 41002       1250   62 70  340/ 10/ 14 1021.8R   8/ 8   8/230/ 8
BUOY 41010       1220   67 74   40/ 14/ 16 1019.4R
ST AUGUSTINE FL  1300   50      10/ 21/ 25 1023.8R

$$



USA.gov is the U.S. government's official web portal to all federal, state and local government web resources and services.